This is the latest recevied weather packets stored in our database for station/object K5GHS-1. If no packets are shown the sender has not sent any weather packets the latest 1 day(s).
| Time | Temp. | Humidity | Pressure | Rain* | Wind** | Luminosity | Snow |
|---|---|---|---|---|---|---|---|
| 1778034731 | 20.56° C | 76% | 1005.9 hPa | 0 mm | - | 0 W/m² | - |
| 1778034428 | 20.56° C | 76% | 1005.5 hPa | 0 mm | - | 0 W/m² | - |
| 1778034126 | 21.11° C | 76% | 1005.4 hPa | 0 mm | - | 0 W/m² | - |
| 1778033824 | 21.11° C | 76% | 1005.6 hPa | 0 mm | - | 0 W/m² | - |
| 1778032310 | 21.67° C | 75% | 1005.1 hPa | 0 mm | - | 0 W/m² | - |
| 1778032007 | 21.67° C | 74% | 1005 hPa | 0 mm | - | 0 W/m² | - |
| 1778031401 | 22.78° C | 74% | 1004.5 hPa | 0 mm | - | 0 W/m² | - |
| 1778030794 | 22.78° C | 72% | 1004.9 hPa | 0 mm | - | 0 W/m² | - |
| 1778030188 | 22.78° C | 72% | 1004.5 hPa | 0 mm | - | 0 W/m² | - |
| 1778029884 | 22.78° C | 71% | 1004.2 hPa | 0 mm | - | 0 W/m² | - |
| 1778028673 | 23.33° C | 71% | 1003.8 hPa | 0 mm | - | 1 W/m² | - |
| 1778028370 | 23.33° C | 70% | 1004 hPa | 0 mm | - | 0 W/m² | - |
| 1778027763 | 23.89° C | 69% | 1004.2 hPa | 0 mm | - | 3 W/m² | - |
| 1778027459 | 23.89° C | 69% | 1003.9 hPa | 0 mm | - | 3 W/m² | - |
| 1778027155 | 23.89° C | 69% | 1004 hPa | 0 mm | - | 6 W/m² | - |
| 1778026245 | 25° C | 68% | 1003.9 hPa | 0 mm | - | 15 W/m² | - |
| 1778024428 | 26.67° C | 64% | 1003.3 hPa | 0 mm | - | 32 W/m² | - |
| 1778023823 | 27.78° C | 62% | 1003.2 hPa | 0 mm | - | 45 W/m² | - |
| 1778023218 | 28.33° C | 60% | 1002.8 hPa | 0 mm | - | 43 W/m² | - |
| 1778022007 | 29.44° C | 51% | 1002.4 hPa | 0 mm | - | 75 W/m² | - |
| 1778020794 | 31.67° C | 47% | 1002.3 hPa | 0 mm | - | 98 W/m² | - |
| 1778019579 | 32.78° C | 51% | 1001.7 hPa | 0 mm | - | 267 W/m² | - |
| 1778019277 | 33.89° C | 50% | 1001.6 hPa | 0 mm | - | 177 W/m² | - |
| 1778018974 | 33.33° C | 53% | 1001.5 hPa | 0 mm | - | 412 W/m² | - |
* Rain latest hour (hover to see other rain measurements)
** Current wind speed in m/s (hover to see current wind gust speed)